User: anonymous   Login
Location: Unspecified
(0.0000°N, 0.0000°E)
Time: 08:16:23
(UTC+00:00)
Language:

CAS-4B - Orbit

View from above orbital plane
View from above orbital plane
View from above satellite
View from above satellite

Ground track
Ground track

The orbit data is extracted from the following two-line orbital elements,

1 42759U 17034B   25138.91822481  .00064276  00000-0  74756-3 0  9993
2 42759  43.0073  90.7263 0018264 143.6572 216.5536 15.60644041439210
Epoch (UTC): 18 May 2025 22:02:14
Eccentricity: 0.0018264
inclination: 43.0073°
perigee height: 373 km
apogee height: 398 km
right ascension of ascending node: 90.7263°
argument of perigee: 143.6572°
revolutions per day: 15.60644041
mean anomaly at epoch: 216.5536°
orbit number at epoch: 43921

The dashed part of the orbit path shows where the satellite is in the earth's shadow,  

DLR